Regional Weather Roundup
Issued by NWS

Home | Current Version | Previous Version | Graphics & Text | Print | Product List | Glossary Off
Versions: 1 2 3 4 5 6 7 8 9 10 11 12 13 14 15 16 17 18 19 20 21 22 23 24 25 26 27 28 29 30 31 32 33 34 35 36 37 38 39 40 41 42 43 44 45 46 47 48 49 50

000
ASUS43 KDMX 272301
RWRIA

WEATHER ROUNDUP FOR IOWA
NATIONAL WEATHER SERVICE DES MOINES IA
600 PM CDT THU APR 27 2017

NOTE: "FAIR" INDICATES FEW OR NO CLOUDS BELOW 12,000 FEET WITH NO
SIGNIFICANT WEATHER AND/OR OBSTRUCTIONS TO VISIBILITY.

* - THESE STATIONS ARE NOT NWS STATIONS...THUS NOT UNDER NWS
QUALITY CONTROL.  THEY ALSO DO NOT REPORT WEATHER SUCH
AS PRECIPITATION OR FOG.

IAZ001>003-012>014-020>022-031>034-043>046-280000-
   NORTHWEST IOWA

CITY           SKY/WX    TMP DP  RH WIND       PRES   REMARKS
CARROLL *      SUNNY     52  36  54 NW13      29.70R
CHEROKEE *     MOSUNNY   47  35  62 NW7       29.70S
DENISON *      CLOUDY    54  36  50 NW7G15    29.71R
LE MARS *      SUNNY     52  34  50 W8G15     29.70R
ORANGE CITY *  SUNNY     48  36  61 NW6       29.69R
SHELDON *      CLOUDY    45  34  65 VRB5      29.68R
SIOUX CITY     SUNNY     54  35  48 NW14      29.70R
SPENCER        CLOUDY    43  32  65 NW9       29.71R
STORM LAKE *   MOSUNNY   45  34  65 NW12G17   29.70R
$$

IAZ055>058-069>071-079>083-090>094-280000-
   SOUTHWEST IOWA

CITY           SKY/WX    TMP DP  RH WIND       PRES   REMARKS
ATLANTIC *     SUNNY     54  34  47 W8G16     29.70S
AUDUBON *      SUNNY     55  36  47 W7        29.70R
CLARINDA *     MOSUNNY   57  34  41 W8        29.73R
COUNCIL BLFS * SUNNY     55  36  47 W8        29.71R
CRESTON *      SUNNY     57  34  41 W14       29.72R
HARLAN  *      CLOUDY    55  34  44 W12       29.73R
LAMONI         MOSUNNY   58  39  49 W8        29.70R
RED OAK *      MOSUNNY   57  32  38 NW7G14    29.71R
SHENANDOAH *   PTSUNNY   57  32  38 W9        29.72R
$$

IAZ047>049-059>061-072>074-084-280000-
   CENTRAL IOWA

CITY           SKY/WX    TMP DP  RH WIND       PRES   REMARKS
AMES           SUNNY     49  35  58 NW13G22   29.71R
ANKENY *       CLOUDY    54  36  50 NW8       29.71S
BOONE *        SUNNY     48  34  57 NW15      29.71R
CHARITON *     MOSUNNY   57  37  47 W8G17     29.70R
DES MOINES     PTSUNNY   57  35  43 NW9       29.70R
GRINNELL*      SUNNY     50  35  56 W8        29.72R
KNOXVILLE *    MOSUNNY   55  36  47 W9        29.69R
MARSHALLTOWN   MOSUNNY   44  33  65 NW17      29.72R
NEWTON *       CLOUDY    52  34  50 W8        29.70S
PELLA *        MOSUNNY   56  37  48 W8        29.71S
PERRY *          N/A     54  32  44 N9        29.70R
$$

IAZ004>006-015-016-023>025-035-036-280000-
   NORTH CENTRAL IOWA

CITY           SKY/WX    TMP DP  RH WIND       PRES   REMARKS
ALGONA *       CLOUDY    41  32  70 W15       29.71R
CLARION *      CLOUDY    43  32  65 W16       29.72R
ESTHERVILLE    CLOUDY    40  32  73 NW15      29.70R WCI  32
FORT DODGE *   CLOUDY    45  32  61 NW9       29.73R
MASON CITY     CLOUDY    38  28  67 W17       29.71R WCI  28
FOREST CITY *  CLOUDY    37  27  65 W16       29.70R WCI  28
WEBSTER CITY * PTSUNNY   46  32  57 W16       29.70R
IOWA FALLS *   CLOUDY    44  32  63 W14       29.73R
$$

IAZ007>011-017>019-026>030-037>042-050>054-066-280000-
   NORTHEAST IOWA

CITY           SKY/WX    TMP DP  RH WIND       PRES   REMARKS
CEDAR RAPIDS   CLOUDY    44  35  70 W15       29.72R
CHARLES CITY * CLOUDY    39  28  65 W14       29.70R WCI  31
CLINTON *      CLOUDY    44  36  73 W16       29.74R
DECORAH *      CLOUDY    37  30  75 W10G20    29.67R WCI  30
DUBUQUE        CLOUDY    40  31  70 W15       29.71R WCI  32
MONTICELLO *   CLOUDY    43  32  65 W14       29.72R
WATERLOO       CLOUDY    41  28  60 W16       29.72R
$$

IAZ064-065-067-068-078-280000-
   EAST CENTRAL IOWA

CITY           SKY/WX    TMP DP  RH WIND       PRES   REMARKS
DAVENPORT      CLOUDY    45  37  73 W14       29.74R
IOWA CITY      PTSUNNY   49  36  61 W12       29.74R
MUSCATINE *    CLOUDY    50  37  62 W6G13     29.74S
QUAD CITIES    CLOUDY    47  36  65 W9        29.75R
$$

IAZ062-063-075>077-085>089-095>099-280000-
   SOUTHEAST IOWA

CITY           SKY/WX    TMP DP  RH WIND       PRES   REMARKS
BURLINGTON     CLOUDY    53  42  66 W5        29.73R
FAIRFIELD *    CLOUDY    54  39  58 W7        29.71S
FORT MADISON * CLOUDY    57  45  62 SW7       29.74R
KEOKUK *       PTSUNNY   55  41  58 SW12      29.73R
OSKALOOSA *    PTSUNNY   54  37  54 NW8       29.71S
CENTERVILLE *    N/A     57  37  47 W7        29.72R
OTTUMWA        CLOUDY    57  40  52 NW10      29.70S
WASHINGTON *   CLOUDY    52  41  66 W8        29.74R
$$

ABBREVIATIONS USED IN REMARKS
   TC - TEMPERATURES IN CELSIUS
  WCI - WIND CHILL INDEX
   HX - HEAT INDEX
  VSB - VISIBILITY
$$




USA.gov is the U.S. government's official web portal to all federal, state and local government web resources and services.